Weather in Bolshaya Kulikovka

Russia / Oryol Oblast     52°55′06″N   36°13′06″E
temp.,
°C
wind,
m/s
gust,
m/s
humid.,
%
clouds,
%
prec.,
mm/h
press.,
hPa
HPBL,
m
11 april, sun
sun1100:00+4ssw23600 0.0 102719
03:00+3wsw22650 0.0 102815
06:00+2wsw11690 0.0 102910
09:00+7wsw11550 0.0 1030178
12:00+11ese11430 0.0 1030851
15:00+13ne23370 0.0 10291147
18:00+13ene35445 0.0 1029308
21:00+8ene366014 0.0 103093
12 april, mon
mon1200:00+6ene3968100 0.0 1031161
03:00+5ene41172100 0.0 1031232
06:00+4ene51368100 0.0 1030299
09:00+7ene61168100 0.0 1029482
12:00+11e5670100 0.0 1028564
15:00+14e576376 0.0 1026746
18:00+14e477083 0.0 1025381
21:00+11ene41086100 0.0 1025161
13 april, tue
tue1300:00+10ese41281100 0.0 1023203
03:00+9se4979100 0.0 1024122
06:00+9se3682100 0.0 102492
09:00+13se596673 0.0 1024303
12:00+17sse6850100 0.0 1023982
15:00+20se68407 0.0 10221874
18:00+18se484685 0.0 1021295
21:00+13ese412595 0.0 1021208
14 april, wed
wed1400:00+12se5126215 0.0 1021245
03:00+10se46746 0.0 102185
06:00+9ese487899 0.0 1021132
09:00+12se41065100 0.0 1021348
12:00+18se674544 0.0 10191041
15:00+19se682896 0.0 10181786
18:00+16se3444100 0.0 101787
21:00+14ese3454100 0.0 101751
15 april, thu
thu1500:00+12ese4755100 0.0 1016111
03:00+11se2261100 0.0 101614
06:00+10ese366372 0.0 1016100
09:00+13sse2458100 0.0 1016387
12:00+16sse2348100 0.0 1015906
15:00+18se344418 0.0 10141654
18:00+18ene2347100 0.0 1014187
21:00+12wsw5881100 0.8 1015190